Theta_e
321 325 325 327 329 328 334 338 338 338 335 332 332 333 336 341 344 355 351 351 347 355 355 351 348 347 346 341 334 334 335 336 338 338 337 337 336 337 342 344 346 344 342 339 335 330 319 318 324
322 324 326 329 331 332 333 335 335 336 334 332 331 332 334 341 346 350 351 349 347 356 355 354 347 346 345 339 335 335 336 337 338 338 337 337 336 337 340 343 344 344 339 334 324 317 316 320 330
320 323 328 331 332 333 333 333 331 332 331 332 332 335 339 346 346 350 353 349 347 354 354 355 347 347 346 345 342 341 339 339 338 337 337 337 336 337 338 341 340 338 334 323 317 316 319 323 330
322 324 327 331 333 333 332 328 330 330 330 331 331 334 339 351 352 350 353 349 349 352 351 356 347 346 346 347 347 346 343 342 339 337 338 338 337 338 338 339 337 335 325 317 316 317 324 333 335
321 325 329 331 332 333 332 328 328 330 330 331 330 336 344 349 352 350 347 348 350 350 350 356 346 346 346 346 347 348 346 345 340 337 338 339 339 339 338 337 335 329 319 317 316 319 324 333 336
323 325 328 332 332 331 331 329 328 329 329 329 330 332 338 333 351 350 348 348 348 348 351 357 347 345 345 345 346 348 348 347 342 338 340 341 340 339 337 336 332 323 318 317 316 319 325 328 330
322 326 328 329 331 331 332 329 329 329 329 329 329 330 334 330 334 352 349 348 348 348 350 355 353 349 345 345 346 348 349 347 344 339 343 343 341 339 336 334 329 321 318 316 315 316 317 318 319
320 323 327 327 328 330 331 329 329 328 328 329 327 330 332 329 332 347 351 350 347 348 349 351 351 351 351 353 348 348 348 348 345 342 346 345 341 338 337 332 326 321 319 316 315 314 314 315 316
320 320 321 323 325 327 328 327 326 327 327 326 326 327 328 326 329 341 350 349 347 347 347 349 349 349 347 347 352 349 348 348 347 346 347 345 346 345 344 335 333 322 320 317 316 316 317 318 319
320 320 320 321 321 322 324 323 323 323 328 327 327 327 325 326 327 334 346 349 347 346 346 348 349 348 347 345 347 350 351 351 352 351 350 348 344 344 340 336 336 324 322 319 318 318 319 319 329
320 320 320 321 322 322 322 322 322 321 323 325 327 327 326 325 327 327 329 342 347 346 346 347 349 350 348 345 346 346 346 346 348 348 348 346 344 343 338 338 337 336 325 330 324 326 328 329 330
319 320 320 321 321 320 320 320 320 320 321 320 321 322 322 323 324 325 326 327 340 346 346 347 349 351 350 346 346 348 345 345 343 343 345 345 345 342 337 337 338 334 333 330 331 330 331 332 334
319 319 319 319 320 319 319 318 318 319 320 320 319 320 320 321 323 323 325 326 328 342 347 346 349 354 353 352 347 348 346 346 344 342 344 345 344 343 341 337 337 334 334 333 334 333 334 335 340
319 319 319 318 318 319 318 318 318 318 319 319 319 320 320 321 322 322 325 325 326 331 343 348 349 353 354 353 351 349 348 347 345 343 344 345 346 344 342 339 338 337 336 335 336 334 334 336 342
319 318 318 319 318 319 319 319 319 319 319 319 319 320 321 321 321 322 324 325 326 327 330 347 350 352 355 355 353 351 350 349 347 345 344 345 346 345 341 340 340 339 338 337 336 335 335 336 339
317 318 318 320 319 318 317 318 320 319 319 318 319 319 320 320 321 321 322 323 327 330 332 340 349 351 355 356 355 353 350 350 349 346 344 345 346 344 341 341 341 339 339 339 338 337 335 335 337
318 318 319 319 319 318 317 318 319 319 319 319 319 319 320 320 321 321 322 323 323 325 333 342 347 349 354 355 355 353 352 351 349 348 346 347 346 343 344 340 341 340 340 339 337 336 336 335 340
318 317 317 317 318 317 317 317 318 318 319 319 319 319 319 320 320 320 321 322 323 324 329 342 350 353 355 355 356 353 353 352 350 349 348 348 348 346 344 340 338 340 340 339 338 336 336 337 336
317 318 318 318 318 318 318 319 319 319 319 320 320 320 320 320 320 320 320 320 321 324 327 332 347 356 356 356 357 355 354 353 351 350 349 349 350 349 346 342 340 342 341 339 337 340 339 338 337
318 317 318 318 318 319 319 320 321 321 321 321 321 321 320 321 321 321 321 321 322 324 326 329 337 351 359 356 356 355 353 352 352 350 349 349 351 350 348 341 342 345 343 343 342 341 342 341 339
318 318 319 319 319 319 319 321 321 321 322 322 321 321 321 320 321 321 321 320 320 321 324 327 330 336 355 354 355 355 355 354 353 353 351 350 351 350 350 343 348 346 345 344 345 343 343 341 340
318 318 318 318 319 321 322 323 323 322 322 322 321 321 321 321 321 321 321 322 321 320 321 323 326 331 335 353 352 354 354 355 354 352 351 352 350 348 349 349 350 349 349 346 347 348 347 345 340
318 319 320 320 321 323 323 324 323 322 322 321 322 321 321 320 320 321 321 321 321 321 320 323 325 327 334 334 351 352 354 351 351 350 349 350 351 350 349 349 351 351 350 348 347 350 349 346 343
318 319 320 321 322 324 323 324 323 321 320 320 320 321 320 320 320 321 322 321 321 321 321 321 325 326 327 334 336 350 352 352 349 351 351 351 350 351 349 350 350 352 351 349 348 347 347 343 345
319 322 326 326 325 325 323 321 320 319 319 320 321 320 321 322 322 323 322 323 322 322 322 322 323 326 325 327 334 339 349 352 351 350 351 350 351 351 351 350 349 351 350 349 348 348 347 346 346
321 323 326 327 326 324 322 320 318 318 320 320 320 320 319 320 320 320 321 321 321 322 322 322 323 324 326 326 328 337 342 348 350 350 348 349 347 350 351 351 350 349 349 349 350 351 351 349 347
320 323 321 323 322 320 318 318 318 318 321 321 320 318 318 318 318 319 320 319 319 319 320 321 322 323 325 327 326 334 341 346 347 347 348 348 347 349 349 350 350 349 349 350 351 350 350 346 347
319 318 320 321 324 323 318 317 315 318 318 317 317 316 317 317 316 317 317 318 318 318 318 319 320 322 324 327 327 329 341 345 347 348 348 347 348 349 350 353 351 351 351 350 348 348 348 347 347
320 320 318 319 321 324 322 316 317 317 317 317 316 316 317 318 318 317 316 316 316 317 317 318 319 321 322 325 327 327 335 341 344 345 346 348 348 350 348 350 352 349 348 348 346 346 345 346 346
317 317 316 320 322 321 322 321 318 317 316 316 316 316 317 318 318 318 317 316 316 315 316 316 317 319 322 323 326 327 332 341 344 345 345 345 344 346 345 346 344 343 343 345 346 345 343 343 344
Wind_Speed
11 15 14 13 8 8 18 21 11 1 4 1 5 8 9 14 12 4 3 5 16 25 28 29 30 30 28 26 27 27 26 26 26 26 24 23 21 20 19 18 16 14 12 11 10 10 11 12 13
11 14 16 10 12 15 15 20 13 9 5 3 9 8 10 9 12 7 6 5 18 22 25 25 31 30 29 27 28 27 27 26 26 25 24 22 20 19 18 17 15 12 11 10 10 11 12 13 12
12 15 10 14 15 17 14 16 8 5 3 6 4 2 7 8 13 7 6 10 18 20 23 23 30 29 29 28 28 27 27 27 27 26 24 21 20 19 18 16 14 12 10 10 10 11 13 12 11
14 13 10 14 23 23 22 3 7 4 6 3 3 7 5 11 8 8 5 14 19 19 21 23 30 28 27 26 27 28 28 28 28 27 24 21 20 19 17 15 13 11 11 11 11 12 12 11 9
18 9 15 18 23 21 6 2 2 9 5 5 3 2 8 9 8 7 10 15 17 18 20 20 30 28 27 26 25 27 29 29 29 28 25 21 20 18 16 14 13 12 12 12 11 12 11 10 8
13 13 16 19 23 22 8 8 10 10 8 8 4 4 10 12 7 5 9 12 15 17 19 18 30 29 27 25 24 25 30 29 28 28 25 22 20 18 16 15 14 13 12 11 11 11 10 9 8
20 16 21 24 22 18 15 13 15 14 13 7 7 9 9 13 9 2 6 11 13 16 18 19 24 25 26 25 24 25 28 30 28 27 24 21 20 18 17 16 15 14 13 12 11 11 11 10 8
16 17 26 23 20 20 19 15 16 16 11 11 3 6 4 11 9 4 8 9 14 17 17 20 24 24 22 21 24 25 27 29 28 26 24 21 19 17 16 16 15 14 13 12 11 11 10 10 9
20 17 20 26 23 22 18 12 14 18 15 13 12 12 8 6 5 4 7 10 14 17 18 19 23 24 24 23 21 27 28 28 27 26 24 22 14 13 13 14 15 15 13 12 12 11 10 10 9
14 17 24 19 18 18 19 12 18 15 20 20 16 16 15 10 7 4 9 9 14 16 18 20 22 23 24 24 22 22 20 22 21 20 20 19 17 15 15 15 14 14 13 13 12 12 11 11 9
20 20 20 17 4 4 10 13 14 16 21 21 18 16 14 14 9 9 11 14 15 14 16 19 22 22 24 24 23 23 22 22 22 21 20 20 18 17 17 16 14 12 14 10 12 11 11 11 11
18 19 23 13 6 12 16 16 18 16 19 15 18 17 15 17 13 14 14 15 17 19 17 18 20 22 23 23 23 22 24 23 23 24 24 21 20 19 19 18 16 17 14 14 13 12 12 12 11
16 16 12 13 12 13 15 17 18 20 17 15 16 18 18 20 20 21 18 16 16 17 20 19 19 23 24 22 23 22 25 24 24 23 24 23 23 20 19 19 17 18 16 15 14 13 12 11 11
16 19 11 15 17 16 16 17 16 15 14 16 17 16 17 18 19 22 21 19 17 18 20 23 23 24 26 27 21 25 24 24 26 24 26 28 24 22 22 21 20 19 18 17 17 15 13 12 11
5 11 13 15 15 14 12 17 19 20 16 15 14 15 15 16 18 18 21 21 18 18 22 22 25 25 27 28 27 25 25 23 25 24 28 32 29 26 25 25 24 22 20 18 16 15 13 12 12
14 14 15 19 19 13 9 14 9 7 6 10 13 12 12 14 14 18 15 16 13 13 17 23 24 26 26 27 27 25 26 28 27 27 29 32 31 28 33 26 23 21 20 20 17 15 13 14 13
12 14 19 9 12 11 14 12 1 3 8 11 12 13 13 15 16 16 14 15 14 12 16 18 23 24 28 28 28 28 27 27 29 30 31 32 34 32 28 26 25 24 19 19 18 18 16 15 14
10 17 13 7 5 12 14 17 14 13 14 15 13 14 12 14 14 17 17 14 12 11 11 17 20 26 23 28 28 27 28 28 29 28 30 30 33 34 31 28 26 28 25 23 20 20 18 16 16
10 13 12 10 4 10 14 16 14 13 14 15 14 15 14 15 15 16 17 15 16 12 12 16 21 21 27 25 26 27 30 31 31 30 31 31 34 32 30 26 25 26 26 26 25 21 17 17 16
12 13 13 12 10 10 15 17 17 17 18 18 17 15 15 14 14 14 18 16 17 11 10 13 18 21 24 26 28 28 28 28 29 30 30 32 30 34 34 34 24 33 26 26 23 26 20 18 16
13 14 14 13 11 13 16 21 23 20 18 15 11 13 14 14 15 15 15 18 20 18 13 12 15 20 25 28 25 25 24 24 25 29 29 33 31 34 33 32 37 33 29 28 30 30 30 20 19
13 10 9 9 12 12 13 15 17 17 16 12 13 12 11 12 13 15 14 13 19 22 23 17 13 16 24 25 28 29 27 24 28 26 26 27 32 31 32 33 35 28 28 27 28 24 25 20 16
11 10 9 14 16 17 19 12 16 17 15 11 6 10 13 16 16 13 16 19 19 13 17 15 18 16 17 24 32 29 31 30 25 25 27 27 27 32 30 33 30 29 29 29 26 27 26 24 19
11 13 18 20 17 16 21 17 8 5 10 10 12 15 17 17 18 16 21 19 18 17 19 21 20 21 19 19 28 34 31 33 27 28 28 28 31 34 36 33 31 29 29 26 25 23 25 25 23
15 14 13 14 12 13 8 10 10 14 8 8 8 7 10 14 13 13 12 13 17 20 18 19 23 25 24 22 23 30 37 33 34 31 30 28 29 28 34 39 37 33 29 27 25 24 20 25 26
13 7 9 14 14 17 21 13 10 1 8 4 5 6 8 8 11 14 17 17 23 19 19 19 22 21 24 28 26 27 33 36 34 33 29 31 29 29 31 37 33 33 32 29 27 24 24 25 22
4 8 5 11 14 14 15 18 20 13 8 8 5 12 5 5 9 16 14 13 19 20 23 23 22 22 23 26 28 27 30 34 34 34 35 29 31 30 30 35 31 30 27 28 23 22 25 24 25
11 11 9 6 7 11 8 14 12 8 7 7 12 14 9 12 14 11 13 16 17 20 23 21 22 25 23 24 28 27 29 32 34 33 32 32 30 31 43 38 33 29 27 25 24 23 25 24 25
8 11 8 7 8 8 12 7 14 15 12 12 13 16 17 18 19 11 11 22 21 24 24 21 23 23 26 23 24 29 28 29 31 32 30 34 32 30 35 28 30 27 26 24 24 24 23 23 21
12 13 14 10 9 10 11 16 19 5 10 13 17 14 15 17 19 20 15 15 22 20 28 23 23 21 20 28 20 24 27 26 26 29 34 34 31 31 26 21 28 29 28 25 23 23 23 22 21
Wind_Direction
290 282 273 259 243 230 245 234 243 150 209 183 324 258 275 322 352 21 46 102 140 147 160 163 169 170 172 173 173 173 173 172 173 169 167 164 162 161 158 156 152 150 146 144 145 139 133 133 129
282 283 264 265 237 244 230 243 190 227 19 350 253 226 252 254 39 92 147 132 150 147 161 165 172 174 173 175 175 177 176 176 176 175 171 170 168 167 166 164 161 157 156 156 150 142 141 140 134
271 262 267 231 237 247 251 203 199 105 223 256 268 243 338 6 45 5 75 151 152 152 164 170 175 178 179 179 181 181 181 180 180 179 177 175 174 173 172 170 167 165 163 155 149 147 147 145 144
245 231 242 257 238 234 259 79 77 227 196 229 336 247 104 35 347 348 121 160 152 158 167 178 178 180 182 186 187 187 187 185 183 183 182 180 180 178 176 175 171 170 165 162 158 156 154 153 156
229 259 234 228 238 254 238 294 85 259 312 278 335 38 95 60 37 100 131 154 158 162 166 172 183 183 185 190 196 196 194 191 188 186 186 186 185 183 180 178 174 175 174 171 165 160 162 165 170
219 221 240 235 235 236 202 261 253 247 271 270 257 303 84 57 49 126 141 164 168 166 167 174 184 187 188 193 197 201 199 196 194 190 189 189 190 188 185 184 182 181 179 176 171 167 171 179 189
234 222 232 244 243 237 200 234 257 257 248 233 39 277 112 60 8 165 169 169 176 172 172 174 180 186 192 194 197 199 199 198 197 195 195 194 194 192 190 189 189 187 186 183 181 179 181 189 202
226 243 237 234 252 248 230 222 247 258 262 286 308 255 170 53 355 204 191 190 183 177 181 176 182 186 188 190 199 196 198 199 200 199 200 200 199 198 197 196 194 192 193 191 190 189 193 198 206
224 237 236 240 238 247 239 217 254 262 267 276 259 292 316 338 314 283 212 197 190 183 184 182 185 189 190 191 197 199 199 201 205 205 205 203 195 201 207 198 213 198 197 196 196 199 208 213 221
222 230 238 235 237 253 253 213 250 264 245 242 252 250 250 258 238 248 217 234 198 192 191 188 188 192 193 193 195 196 198 200 201 200 204 196 200 200 200 204 211 211 204 203 204 210 216 228 240
221 242 230 236 265 253 257 246 244 250 252 260 266 271 274 273 254 278 277 238 207 212 202 201 184 194 197 199 187 195 199 202 205 203 201 199 200 200 195 196 204 206 210 209 216 221 222 231 249
227 236 254 254 192 247 241 261 265 249 258 269 277 285 284 273 276 267 256 253 242 203 211 204 191 195 202 202 193 197 198 197 202 205 201 198 199 199 199 200 197 196 202 205 208 219 224 232 243
218 247 237 260 244 229 243 244 258 258 263 258 256 261 257 256 258 255 252 255 264 240 201 220 207 194 204 216 200 200 200 195 200 201 201 201 201 199 200 203 197 195 201 203 210 219 217 235 241
210 233 218 238 239 235 234 248 239 249 243 252 250 254 256 252 253 247 242 242 237 242 227 208 212 202 201 209 210 198 200 199 196 196 201 197 201 200 201 202 200 200 202 206 207 211 220 230 236
222 233 227 230 233 242 245 255 238 248 247 254 262 278 268 265 261 253 246 248 241 232 242 210 211 209 199 205 215 204 205 199 199 195 202 196 199 202 202 204 199 202 200 205 210 214 216 228 234
237 227 248 215 211 221 225 263 216 179 203 235 244 256 278 278 269 269 248 255 269 270 247 223 214 210 206 207 211 213 209 203 203 198 203 197 204 201 200 206 204 208 200 198 206 217 218 238 232
206 243 215 164 186 231 200 258 127 138 242 236 260 268 257 259 271 259 260 257 252 254 254 220 216 217 205 209 214 213 213 207 210 203 202 197 200 204 204 207 204 198 201 207 205 213 211 226 236
241 207 245 264 230 203 248 252 254 266 261 263 258 251 253 264 242 258 266 258 253 254 234 231 213 211 215 204 206 215 217 218 212 210 205 200 201 200 207 213 208 198 202 206 204 215 216 222 238
323 292 291 289 285 286 275 278 275 274 269 264 261 256 242 241 249 240 236 254 261 252 238 227 225 213 206 204 209 214 214 210 214 213 209 207 202 204 203 213 218 208 205 204 202 206 216 223 227
262 262 260 260 260 269 278 277 281 276 273 274 273 271 265 254 243 239 240 243 251 254 259 246 232 224 211 214 211 215 221 221 214 212 216 207 201 198 201 204 227 223 211 209 204 193 205 215 227
243 261 268 280 305 289 278 266 254 250 248 256 249 259 272 272 268 266 263 266 267 260 269 262 242 237 223 218 215 216 227 228 215 210 212 206 207 212 210 208 211 218 209 213 205 198 204 199 216
255 243 273 278 270 273 309 296 287 275 261 251 261 253 266 291 296 294 284 246 256 269 270 261 257 237 239 228 226 212 211 213 217 212 211 205 204 208 213 212 214 215 213 218 214 207 203 201 214
273 332 284 281 278 277 269 258 265 254 246 258 27 358 340 325 317 318 309 303 327 277 275 296 303 283 255 243 224 219 214 217 214 213 216 215 206 207 213 216 213 210 215 216 218 205 197 198 204
282 291 272 265 260 257 258 252 283 329 353 347 358 342 331 308 304 326 308 315 305 299 297 296 291 273 259 255 249 229 225 219 208 206 208 207 210 207 209 221 214 211 212 217 213 213 199 204 207
236 255 276 265 243 255 297 325 318 319 22 27 335 336 334 348 333 312 310 316 324 312 311 312 300 295 282 263 250 247 233 233 221 211 205 202 202 207 210 203 205 202 205 210 212 205 204 208 210
296 259 277 295 292 299 322 298 288 332 144 158 258 280 294 325 323 324 320 332 319 311 308 298 299 299 293 276 258 242 242 231 232 226 217 209 213 204 205 205 206 190 196 205 203 196 201 202 204
346 270 320 293 286 276 264 254 245 243 120 195 5 298 307 320 310 311 297 292 302 321 308 298 301 307 299 286 269 254 239 234 228 226 223 221 214 204 195 194 194 194 198 194 197 201 208 207 211
255 302 277 243 281 289 304 322 296 29 343 265 276 317 306 290 285 291 300 301 291 296 294 303 308 307 304 292 274 257 242 233 231 233 226 219 218 215 186 183 188 195 200 202 201 206 215 216 217
183 239 216 235 248 272 295 282 0 337 333 326 316 310 303 305 305 296 301 292 308 300 296 303 309 305 310 301 278 260 254 232 234 229 226 215 220 214 172 195 172 192 200 202 202 209 213 213 216
290 299 297 271 247 243 268 273 273 306 277 271 278 312 325 336 328 320 305 300 288 297 303 309 303 306 305 308 290 262 255 234 234 229 225 218 215 217 216 156 183 193 197 197 199 208 210 209 214